Regional Weather Roundup
Issued by NWS

Home | Current Version | Previous Version | Graphics & Text | Print | Product List | Glossary On
Versions: 1 2 3 4 5 6 7 8 9 10 11 12 13 14 15 16 17 18 19 20 21 22 23 24 25 26 27 28 29 30 31 32 33 34 35 36 37 38 39 40 41 42 43 44 45 46 47 48 49 50
000
ASUS43 KMKX 301700
RWRWI

WISCONSIN REGIONAL WEATHER ROUNDUP
NATIONAL WEATHER SERVICE MILWAUKEE/SULLIVAN WI
1200 PM CDT MON MAY 30 2016

NOTE: "FAIR" INDICATES FEW OR NO CLOUDS BELOW 12,000 FEET WITH NO
SIGNIFICANT WEATHER AND/OR OBSTRUCTIONS TO VISIBILITY.

WIZ001-002-006>008-014>016-023>028-301800-
NORTHWEST WISCONSIN

CITY           SKY/WX    TMP DP  RH WIND       PRES   REMARKS
SUPERIOR ARPT  SUNNY     78  48  33 W13       29.96S
ASHLAND        MOSUNNY   77  48  35 VRB6G17   29.97F
HAYWARD        SUNNY     75  46  35 VRB6      30.00S
SIREN          MOSUNNY   77  52  41 SW12G20   30.00S
CUMBERLAND     MOSUNNY   73  50  43 W9G17     30.01S
RICE LAKE      MOSUNNY   75  50  41 SW9       30.03S
CHETEK         MOSUNNY   74  55  52 SW8       30.02S
LADYSMITH      SUNNY     75  47  37 W6        30.03S
EAU CLAIRE     NOT AVBL
MENOMONIE      SUNNY     80  57  46 S7        30.02S HX  80
NEW RICHMOND   MOSUNNY   76  55  48 SW7       30.01S
OSCEOLA        MOSUNNY   74  59  59 SW5       30.03S
$$

WIZ003>005-009-010-017-018-301800-
NORTH CENTRAL WISCONSIN

CITY           SKY/WX    TMP DP  RH WIND       PRES   REMARKS
MANITOWISH WTR NOT AVBL
ARBOR VITAE    MOSUNNY   72  50  46 W12       30.01S
WOODRUFF       MOSUNNY   72  50  46 W12       30.01S
RHINELANDER    MOSUNNY   73  47  39 W10       30.02S
EAGLE RIVER      N/A     71  45  39 W16       30.01S
LAND O LAKES   PTSUNNY   71  45  39 NW12G20   30.01S
PHILLIPS       SUNNY     72  48  42 W6        30.02S
TOMAHAWK       SUNNY     72  47  41 NW8       30.03S
MEDFORD        CLOUDY    72  51  47 W6        30.03S
MERRILL        SUNNY     73  50  44 W8        30.03R
$$

WIZ029-030-035-036-043>047-301800-
CENTRAL WISCONSIN

CITY           SKY/WX    TMP DP  RH WIND       PRES   REMARKS
WAUSAU         SUNNY     76  48  37 NW8       30.01S
MOSINEE        SUNNY     73  48  40 W8        30.04S
MARSHFIELD     SUNNY     76  49  38 W9        30.03F
STEVENS POINT  SUNNY     74  46  37 W7        30.04R
WAUPACA        SUNNY     78  45  30 W9        30.03R
WAUTOMA        MOSUNNY  N/A N/A N/A VRB7      30.03S
WISC RAPIDS    SUNNY     78  44  29 NW12      30.04F
CAMP DOUGLAS   NOT AVBL
$$

WIZ011>013-019>022-031-037>040-048>050-301800-
NORTHEAST WISCONSIN

CITY           SKY/WX    TMP DP  RH WIND       PRES   REMARKS
ANTIGO         MOSUNNY   71  53  52 W9        30.03S
SHAWANO        SUNNY     77  48  35 SW9       30.01S
OCONTO         SUNNY     75  51  41 NW7       29.99F
STURGEON BAY   NOT AVBL
GREEN BAY      SUNNY     77  52  41 W8        30.00F
MANITOWOC      NOT AVBL
APPLETON       MOSUNNY   75  48  38 NW7       30.01S
CLINTONVILLE   SUNNY     77  43  29 N9        30.01S
OSHKOSH        SUNNY     76  56  49 W7        30.02S
$$

WIZ032>034-041-042-053>061-301800-
SOUTHWEST WISCONSIN

CITY           SKY/WX    TMP DP  RH WIND       PRES   REMARKS
LA CROSSE      SUNNY     80  51  36 S8        30.02F HX  80
SPARTA         SUNNY     76  50  39 SW6       30.05S
VIROQUA        SUNNY     77  46  33 S3        30.06F
BOSCOBEL       MOSUNNY   80  48  32 VRB3      30.04F
PRAIRIE DU CHI MOSUNNY   76  48  36 CALM      30.05F
PLATTEVILLE    CLOUDY    78  50  37 W5        30.08R
$$

WIZ056-057-062-063-064-067-068-301800-
SOUTH CENTRAL WISCONSIN

CITY           SKY/WX    TMP DP  RH WIND       PRES   REMARKS
REEDSBURG      SUNNY     77  53  43 W6        30.05S
BARABOO/DELLS  SUNNY     77  38  24 NW9       30.05S
LONE ROCK      NOT AVBL
MINERAL POINT  SUNNY     79  43  27 NW6       30.07S
MADISON        MOSUNNY   77  54  44 VRB7      30.04S
MIDDLETON      MOSUNNY   77  55  45 NW9       30.06S
WATERTOWN      PTSUNNY   76  60  57 NW8       30.04R
MONROE         SUNNY     77  50  38 NW12      30.06S
JANESVILLE     MOSUNNY   81  55  41 W8        30.03F HX  80
$$

WIZ051-052-058>065-066-070>072-301800-
SOUTHEAST WISCONSIN

CITY           SKY/WX    TMP DP  RH WIND       PRES   REMARKS
MILWAUKEE      PTSUNNY   80  58  46 VRB7      30.02S HX  80
WAUKESHA       NOT AVBL
MILWAUKEE/TIMM PTSUNNY   75  54  46 MISG      30.03S
RACINE         PTSUNNY   75  58  55 E9        30.04S
BURLINGTON     MOSUNNY   78  57  49 NW9       30.03F
KENOSHA        MOSUNNY   81  61  50 W8        30.03S HX  82
FOND DU LAC    MOSUNNY   77  55  46 W7        30.03S
SHEBOYGAN      SUNNY     77  58  51 NW13      30.02S
WEST BEND      MOSUNNY   77  55  47 NW9       30.03S
JUNEAU         MOSUNNY   73  56  53 NW7       30.05R
$$

LSZ147-162-301800-
LAKE SUPERIOR

STATION/POSITION TIME  TEMP    WIND        PRES    WAVE
                       AIR SEA DIR/SP/G            HT/PER
                 (UTC) (F)     (DEG/KT/KT) (MB)    (FT/S)
W MID LAKE BUOY  1550   44 38  240/ 10/ 12 1014.1R   1/ 4
DEVILS ISLAND    1600   57     230/ 13/ 15 1014.5S
SAXON HARBOR     1640   69     310/  8/ 10 1014.6S
$$

LMZ867-665-643>646-301800-
LAKE MICHIGAN

STATION/POSITION TIME  TEMP    WIND        PRES    WAVE
                       AIR SEA DIR/SP/G            HT/PER
                 (UTC) (F)     (DEG/KT/KT) (MB)    (FT/S)
CHAMBERS ISLAND  1600   71     230/  4/  8 1015.2F
N MID LAKE BUOY  1550   52 48  210/ 10/ 10 1014.8R   1
NORTHPORT PIER   1600   71     270/  7/ 12 1014.9S
KEWAUNEE LAKESHO 1600   74     300/  8/ 13 1015.3S
SHEBOYGAN LAKESH 1600   63     150/  5/  6 1016.6R
PORT WASHINGTON  1600   68     110/  1/  9 1017.3
S MID LAKE BUOY  1550   60 54  180/  2/  2 1016.5R   0
KENOSHA   LAKESH 1600   69     150/  8/ 10 1016.6R
$$

TC  - TEMPERATURE IN CELSIUS
VSB - VISIBILITY IN STATUTE MILES
WCI - WIND CHILL INDEX
HX  - HEAT INDEX





USA.gov is the U.S. government's official web portal to all federal, state and local government web resources and services.